When you browse on this site, cookies collect data to enhance your experience and personalize the content and advertising you see.
Visit our Privacy Policy to learn more. By continuing to use the site, you agree to this use of cookies and data.
  • In Hungary
  • List of Countries
  • For 7 days
  • Water Temperature
  • Weather Map
  • News
  • Weather Widgets
  • user-avatar
    Login

    Hourly Weather Zelenyi Dovzhok

    Today, 20 August, Tuesday

    Time Temperature Precipitation Wind Pressure Humidity
    00:00 +20°C° 0 mm 2 mps 744 mmHg 45%
    01:00 +20°C° 0 mm 2 mps 744 mmHg 45%
    02:00 +19°C° 0 mm 2 mps 744 mmHg 46%
    03:00 +20°C° 0 mm 1 mps 745 mmHg 48%
    04:00 +19°C° 0 mm 1 mps 745 mmHg 49%
    05:00 +19°C° 0 mm 1 mps 745 mmHg 50%
    06:00 +21°C° 0 mm 1 mps 745 mmHg 46%
    07:00 +23°C° 0 mm 1 mps 745 mmHg 42%
    08:00 +26°C° 0 mm 1 mps 745 mmHg 37%
    09:00 +28°C° 0 mm 1 mps 746 mmHg 34%
    10:00 +29°C° 0 mm 1 mps 746 mmHg 30%
    11:00 +31°C° 0 mm 1 mps 746 mmHg 27%
    12:00 +32°C° 0 mm 1 mps 746 mmHg 25%
    13:00 +32°C° 0 mm 2 mps 746 mmHg 24%
    14:00 +34°C° 0 mm 2 mps 745 mmHg 23%
    15:00 +34°C° 0 mm 2 mps 745 mmHg 23%
    16:00 +32°C° 0 mm 2 mps 745 mmHg 24%
    17:00 +32°C° 0 mm 2 mps 745 mmHg 24%
    18:00 +30°C° 0 mm 2 mps 745 mmHg 30%
    19:00 +27°C° 0 mm 3 mps 745 mmHg 35%
    20:00 +25°C° 0 mm 3 mps 745 mmHg 40%
    21:00 +24°C° 0 mm 2 mps 745 mmHg 43%
    22:00 +23°C° 0 mm 2 mps 745 mmHg 46%
    23:00 +21°C° 0 mm 2 mps 745 mmHg 49%

    Tomorrow, 21 August, Wednesday

    Time Temperature Precipitation Wind Pressure Humidity
    00:00 +21°C° 0 mm 2 mps 745 mmHg 51%
    01:00 +21°C° 0 mm 1 mps 745 mmHg 53%
    02:00 +21°C° 0 mm 1 mps 745 mmHg 55%
    03:00 +20°C° 0 mm 1 mps 745 mmHg 57%
    04:00 +20°C° 0 mm 1 mps 745 mmHg 58%
    05:00 +19°C° 0 mm 2 mps 745 mmHg 60%
    06:00 +21°C° 0 mm 2 mps 745 mmHg 55%
    07:00 +24°C° 0 mm 2 mps 745 mmHg 51%
    08:00 +26°C° 0 mm 2 mps 745 mmHg 46%
    09:00 +28°C° 0 mm 2 mps 745 mmHg 42%
    10:00 +29°C° 0 mm 2 mps 745 mmHg 37%
    11:00 +31°C° 0 mm 2 mps 745 mmHg 32%
    12:00 +32°C° 0 mm 2 mps 745 mmHg 30%
    13:00 +33°C° 0 mm 3 mps 745 mmHg 27%
    14:00 +34°C° 0 mm 3 mps 744 mmHg 25%
    15:00 +34°C° 0 mm 3 mps 744 mmHg 26%
    16:00 +33°C° 0 mm 3 mps 744 mmHg 27%
    17:00 +33°C° 0 mm 3 mps 743 mmHg 27%
    18:00 +30°C° 0 mm 3 mps 744 mmHg 32%
    19:00 +27°C° 0 mm 3 mps 744 mmHg 37%
    20:00 +25°C° 0 mm 2 mps 744 mmHg 42%
    21:00 +24°C° 0 mm 2 mps 744 mmHg 46%
    22:00 +23°C° 0 mm 2 mps 744 mmHg 50%
    23:00 +21°C° 0 mm 2 mps 744 mmHg 53%

    Day after tomorrow, 22 August, Thursday

    Time Temperature Precipitation Wind Pressure Humidity
    00:00 +21°C° 0 mm 2 mps 744 mmHg 54%
    01:00 +21°C° 0 mm 2 mps 744 mmHg 55%
    02:00 +20°C° 0 mm 2 mps 744 mmHg 56%
    03:00 +20°C° 0 mm 2 mps 744 mmHg 58%
    04:00 +20°C° 0 mm 2 mps 744 mmHg 61%
    05:00 +19°C° 0 mm 2 mps 744 mmHg 64%
    06:00 +21°C° 0 mm 3 mps 744 mmHg 60%
    07:00 +23°C° 0 mm 4 mps 745 mmHg 56%
    08:00 +25°C° 0 mm 4 mps 745 mmHg 52%
    09:00 +27°C° 0 mm 4 mps 745 mmHg 49%
    10:00 +29°C° 0 mm 5 mps 746 mmHg 46%
    11:00 +30°C° 0 mm 5 mps 746 mmHg 42%
    12:00 +32°C° 0 mm 5 mps 746 mmHg 43%
    13:00 +32°C° 0 mm 6 mps 745 mmHg 44%
    14:00 +32°C° 0 mm 6 mps 745 mmHg 44%
    15:00 +30°C° 0 mm 6 mps 745 mmHg 48%
    16:00 +29°C° 0 mm 6 mps 745 mmHg 52%
    17:00 +28°C° 0 mm 6 mps 745 mmHg 56%
    18:00 +26°C° 0 mm 6 mps 745 mmHg 64%
    19:00 +23°C° 0 mm 5 mps 746 mmHg 72%
    20:00 +21°C° 0 mm 5 mps 746 mmHg 80%
    21:00 +20°C° 0 mm 5 mps 746 mmHg 83%
    22:00 +19°C° 0 mm 5 mps 746 mmHg 86%
    23:00 +17°C° 0 mm 5 mps 746 mmHg 89%

    23 August, Friday

    Time Temperature Precipitation Wind Pressure Humidity
    00:00 +17°C° 0 mm 5 mps 746 mmHg 90%
    01:00 +17°C° 0 mm 4 mps 746 mmHg 92%
    02:00 +17°C° 0 mm 4 mps 746 mmHg 94%
    03:00 +17°C° 0 mm 4 mps 746 mmHg 95%
    04:00 +15°C° 0 mm 4 mps 746 mmHg 95%
    05:00 +16°C° 0 mm 3 mps 746 mmHg 96%
    06:00 +18°C° 0 mm 4 mps 746 mmHg 90%
    07:00 +19°C° 0 mm 4 mps 747 mmHg 83%
    08:00 +20°C° 0 mm 4 mps 747 mmHg 77%
    09:00 +22°C° 0 mm 4 mps 747 mmHg 69%
    10:00 +25°C° 0 mm 4 mps 747 mmHg 61%
    11:00 +27°C° 0 mm 4 mps 747 mmHg 53%
    12:00 +28°C° 0 mm 5 mps 747 mmHg 50%
    13:00 +29°C° 0 mm 5 mps 747 mmHg 47%
    14:00 +30°C° 0 mm 5 mps 747 mmHg 44%
    15:00 +29°C° 0 mm 6 mps 747 mmHg 45%
    16:00 +29°C° 0 mm 6 mps 747 mmHg 45%
    17:00 +28°C° 0 mm 6 mps 747 mmHg 46%
    18:00 +26°C° 0 mm 5 mps 747 mmHg 53%
    19:00 +23°C° 0 mm 5 mps 747 mmHg 59%
    20:00 +21°C° 0 mm 4 mps 747 mmHg 66%
    21:00 +20°C° 0 mm 4 mps 747 mmHg 70%
    22:00 +19°C° 0 mm 3 mps 748 mmHg 75%
    23:00 +18°C° 0 mm 3 mps 748 mmHg 80%

    24 August, Saturday

    Time Temperature Precipitation Wind Pressure Humidity
    00:00 +17°C° 0 mm 3 mps 748 mmHg 81%
    01:00 +16°C° 0 mm 3 mps 748 mmHg 83%
    02:00 +16°C° 0 mm 3 mps 748 mmHg 85%
    03:00 +14°C° 0 mm 4 mps 748 mmHg 85%
    04:00 +14°C° 0 mm 4 mps 748 mmHg 85%
    05:00 +13°C° 0 mm 4 mps 748 mmHg 85%
    06:00 +15°C° 0 mm 4 mps 748 mmHg 77%
    07:00 +18°C° 0 mm 4 mps 748 mmHg 68%
    08:00 +20°C° 0 mm 5 mps 749 mmHg 60%
    09:00 +22°C° 0 mm 5 mps 749 mmHg 52%
    10:00 +25°C° 0 mm 5 mps 749 mmHg 43%
    11:00 +27°C° 0 mm 4 mps 749 mmHg 35%
    12:00 +28°C° 0 mm 4 mps 748 mmHg 31%
    13:00 +29°C° 0 mm 4 mps 748 mmHg 28%
    14:00 +30°C° 0 mm 4 mps 748 mmHg 24%
    15:00 +30°C° 0 mm 4 mps 748 mmHg 25%
    16:00 +29°C° 0 mm 4 mps 747 mmHg 26%
    17:00 +29°C° 0 mm 4 mps 747 mmHg 27%
    18:00 +26°C° 0 mm 4 mps 747 mmHg 33%
    19:00 +24°C° 0 mm 3 mps 747 mmHg 39%
    20:00 +20°C° 0 mm 3 mps 747 mmHg 45%
    21:00 +19°C° 0 mm 3 mps 747 mmHg 48%
    22:00 +18°C° 0 mm 3 mps 747 mmHg 50%
    23:00 +17°C° 0 mm 3 mps 747 mmHg 53%

    25 August, Sunday

    Time Temperature Precipitation Wind Pressure Humidity
    00:00 +17°C° 0 mm 3 mps 747 mmHg 54%
    01:00 +17°C° 0 mm 3 mps 747 mmHg 56%
    02:00 +16°C° 0 mm 3 mps 747 mmHg 57%
    03:00 +16°C° 0 mm 3 mps 746 mmHg 61%
    04:00 +14°C° 0 mm 3 mps 746 mmHg 64%
    05:00 +14°C° 0 mm 3 mps 746 mmHg 67%
    06:00 +17°C° 0 mm 3 mps 746 mmHg 61%
    07:00 +19°C° 0 mm 3 mps 746 mmHg 55%
    08:00 +22°C° 0 mm 3 mps 747 mmHg 48%
    09:00 +25°C° 0 mm 3 mps 747 mmHg 43%
    10:00 +26°C° 0 mm 3 mps 747 mmHg 38%
    11:00 +28°C° 0 mm 3 mps 746 mmHg 33%
    12:00 +29°C° 0 mm 3 mps 746 mmHg 29%
    13:00 +30°C° 0 mm 3 mps 746 mmHg 26%
    14:00 +31°C° 0 mm 3 mps 745 mmHg 23%
    15:00 +31°C° 0 mm 3 mps 745 mmHg 22%
    16:00 +31°C° 0 mm 3 mps 745 mmHg 22%
    17:00 +31°C° 0 mm 3 mps 744 mmHg 21%
    18:00 +28°C° 0 mm 3 mps 744 mmHg 25%
    19:00 +25°C° 0 mm 3 mps 744 mmHg 30%
    20:00 +21°C° 0 mm 3 mps 744 mmHg 34%
    21:00 +21°C° 0 mm 3 mps 744 mmHg 36%
    22:00 +20°C° 0 mm 3 mps 745 mmHg 38%
    23:00 +19°C° 0 mm 3 mps 745 mmHg 41%
    Show more